GW3406 Weather Reports


time (UTC)temp
F
wind
direction
speed
knots
gust
knots
rain 1hr
in
rain 24hr
in
rain mn
in
humidity
%
barometer
mb
20260504033203 37 195 0.0 0.9 0.00 0.00 0.00 84 1005.3
20260504032659 36 167 0.9 1.7 0.00 0.00 0.00 84 1005.4
20260504032156 36 153 0.9 0.9 0.00 0.00 0.00 84 1005.3
20260504031653 36 192 0.9 0.9 0.00 0.00 0.00 84 1005.2
20260504031150 36 241 0.9 1.7 0.00 0.00 0.00 83 1005.2
20260504030646 36 250 0.9 1.7 0.00 0.00 0.00 84 1005.3
20260504030143 36 218 0.0 1.7 0.00 0.00 0.00 84 1005.3
20260504025640 36 209 0.9 1.7 0.00 0.00 0.00 83 1005.3
20260504025137 37 161 0.9 0.9 0.00 0.00 0.00 83 1005.3
20260504024634 37 189 0.0 0.9 0.00 0.00 0.00 81 1005.5
20260504024131 37 218 0.9 1.7 0.00 0.00 0.00 82 1005.6
20260504023627 37 177 0.9 0.9 0.00 0.00 0.00 82 1005.4
20260504023124 37 236 0.9 0.9 0.00 0.00 0.00 83 1005.7
20260504022620 37 158 0.9 0.9 0.00 0.00 0.00 83 1005.5
20260504022116 37 233 0.9 0.9 0.00 0.00 0.00 82 1005.4
20260504021614 37 229 0.0 0.0 0.00 0.00 0.00 82 1005.5
20260504021110 37 182 0.9 1.7 0.00 0.00 0.00 81 1005.3
20260504020608 37 195 0.0 0.9 0.00 0.00 0.00 81 1005.2
20260504020104 38 163 0.0 0.9 0.00 0.00 0.00 81 1005.1
20260504015600 39 176 1.7 1.7 0.00 0.00 0.00 80 1005.0
20260504015056 39 227 0.9 1.7 0.00 0.00 0.00 79 1005.1
20260504014552 39 238 1.7 1.7 0.00 0.00 0.00 78 1005.0
20260504014049 38 237 1.7 2.6 0.00 0.00 0.00 78 1005.0
20260504013547 38 156 0.9 1.7 0.00 0.00 0.00 79 1005.1
20260504013043 38 184 0.0 0.9 0.00 0.00 0.00 79 1004.9
20260504012536 38 158 0.0 0.9 0.00 0.00 0.00 78 1004.8
20260504012033 38 174 0.9 1.7 0.00 0.00 0.00 78 1004.9
20260504011530 39 238 0.9 1.7 0.00 0.00 0.00 77 1004.7
20260504011026 39 174 0.9 0.9 0.00 0.00 0.00 78 1004.7
20260504010522 39 166 0.0 0.9 0.00 0.00 0.00 77 1004.8
20260504010018 40 156 0.9 0.9 0.00 0.00 0.00 76 1004.6
20260504005515 40 147 0.9 0.9 0.00 0.00 0.00 76 1004.6
20260504005012 41 154 0.9 1.7 0.00 0.00 0.00 74 1004.6
20260504004510 41 205 0.9 1.7 0.00 0.00 0.00 72 1004.4
20260504004007 42 193 0.0 0.9 0.00 0.00 0.00 70 1004.6
20260504003503 43 196 0.0 0.9 0.00 0.00 0.00 68 1004.4
20260504003000 44 200 0.0 0.9 0.00 0.00 0.00 66 1004.4
20260504002457 44 184 0.0 0.0 0.00 0.00 0.00 63 1004.4
20260504001954 45 208 0.0 0.0 0.00 0.00 0.00 62 1004.4
20260504001451 45 213 0.0 0.0 0.00 0.00 0.00 61 1004.3
20260504000948 46 234 0.9 0.9 0.00 0.00 0.00 61 1004.3
20260504000445 47 233 0.0 0.9 0.00 0.00 0.00 57 1004.2
20260503235942 47 242 0.9 0.9 0.00 0.00 0.00 56 1004.0
20260503235440 47 241 0.9 0.9 0.00 0.00 0.00 60 1004.2
20260503234937 48 206 0.0 1.7 0.00 0.00 0.00 57 1004.4
20260503234435 49 241 0.9 0.9 0.00 0.00 0.00 55 1004.3
20260503233933 50 248 0.9 0.9 0.00 0.00 0.00 56 1004.4
20260503233429 51 233 0.0 0.9 0.00 0.00 0.00 51 1004.2
20260503232925 52 322 0.9 1.7 0.00 0.00 0.00 45 1004.3
20260503232422 51 249 0.0 0.9 0.00 0.00 0.00 47 1004.2
20260503231920 52 227 0.0 0.9 0.00 0.00 0.00 43 1004.3
20260503231417 53 133 1.7 1.7 0.00 0.00 0.00 36 1004.3
20260503230914 54 257 0.9 2.6 0.00 0.00 0.00 39 1004.2
20260503230410 54 249 2.6 5.2 0.00 0.00 0.00 41 1004.2
20260503225908 55 345 0.9 0.9 0.00 0.00 0.00 38 1004.2
20260503225404 56 231 0.9 3.5 0.00 0.00 0.00 33 1004.1
20260503224900 56 211 3.5 3.5 0.00 0.00 0.00 32 1004.2
20260503224357 56 261 2.6 3.5 0.00 0.00 0.00 33 1004.2
20260503223855 56 123 1.7 2.6 0.00 0.00 0.00 33 1004.3
20260503223353 57 133 0.9 2.6 0.00 0.00 0.00 33 1004.2
20260503222848 57 263 0.9 3.5 0.00 0.00 0.00 33 1004.0
20260503222347 58 172 3.5 7.8 0.00 0.00 0.00 31 1004.3
20260503221844 58 257 0.0 2.6 0.00 0.00 0.00 30 1004.1
20260503221343 58 296 1.7 7.8 0.00 0.00 0.00 32 1004.3
20260503220838 58 150 1.7 6.1 0.00 0.00 0.00 32 1004.3
20260503220336 58 256 1.7 5.2 0.00 0.00 0.00 31 1004.4
20260503215832 58 238 4.3 6.1 0.00 0.00 0.00 30 1004.4
20260503215330 58 169 1.7 5.2 0.00 0.00 0.00 29 1004.6
20260503214827 58 260 1.7 7.0 0.00 0.00 0.00 29 1004.6
20260503214324 58 135 5.2 7.8 0.00 0.00 0.00 32 1004.3
20260503213822 59 246 1.7 3.5 0.00 0.00 0.00 29 1004.6
20260503213319 58 149 5.2 7.8 0.00 0.00 0.00 30 1004.6
20260503212816 59 43 2.6 5.2 0.00 0.00 0.00 29 1004.6
20260503212314 58 132 4.3 6.1 0.00 0.00 0.00 31 1004.7
20260503211811 58 276 3.5 6.1 0.00 0.00 0.00 31 1004.6
20260503211308 58 243 3.5 7.8 0.00 0.00 0.00 31 1004.4
20260503210807 58 221 4.3 7.8 0.00 0.00 0.00 30 1004.4
20260503210306 58 284 1.7 2.6 0.00 0.00 0.00 29 1004.6
20260503205800 59 246 5.2 6.1 0.00 0.00 0.00 31 1004.7
20260503205257 58 71 4.3 6.1 0.00 0.00 0.00 34 1004.8
20260503204753 58 299 4.3 7.0 0.00 0.00 0.00 30 1004.8
20260503204251 59 246 0.9 3.5 0.00 0.00 0.00 31 1004.8
20260503203749 58 143 2.6 8.7 0.00 0.00 0.00 32 1004.9
20260503203246 58 140 3.5 7.0 0.00 0.00 0.00 34 1004.9
20260503202743 57 172 2.6 7.8 0.00 0.00 0.00 32 1004.8
20260503202241 58 305 4.3 8.7 0.00 0.00 0.00 32 1005.0
20260503201738 57 280 0.9 5.2 0.00 0.00 0.00 34 1005.1
20260503201235 57 213 3.5 12.2 0.00 0.00 0.00 35 1004.9
20260503200732 57 237 7.0 11.3 0.00 0.00 0.00 34 1005.2
20260503200228 57 281 3.5 5.2 0.00 0.00 0.00 31 1005.2
20260503195725 57 241 2.6 9.6 0.00 0.00 0.00 33 1005.5
20260503195222 57 270 2.6 9.6 0.00 0.00 0.00 30 1005.5
20260503194720 57 227 3.5 6.1 0.00 0.00 0.00 33 1005.5
20260503194215 56 253 4.3 7.8 0.00 0.00 0.00 33 1005.6
20260503193711 56 145 3.5 6.1 0.00 0.00 0.00 36 1005.8
20260503193208 56 253 3.5 7.8 0.00 0.00 0.00 37 1005.9
20260503192703 56 236 2.6 7.0 0.00 0.00 0.00 39 1006.0
20260503192159 56 181 7.0 8.7 0.00 0.00 0.00 33 1006.0
20260503191655 56 157 3.5 8.7 0.00 0.00 0.00 35 1005.8
20260503191153 56 164 7.0 8.7 0.00 0.00 0.00 36 1006.1
20260503190650 55 139 1.7 7.0 0.00 0.00 0.00 37 1006.3
20260503190146 56 197 7.8 9.6 0.00 0.00 0.00 33 1006.3
20260503185643 56 180 5.2 7.8 0.00 0.00 0.00 37 1006.3
20260503185138 55 143 4.3 9.6 0.00 0.00 0.00 37 1006.1
20260503184634 55 106 1.7 3.5 0.00 0.00 0.00 37 1006.5
20260503184130 55 250 3.5 7.0 0.00 0.00 0.00 37 1006.4
20260503183627 55 118 2.6 6.1 0.00 0.00 0.00 39 1006.5
20260503183124 55 199 1.7 5.2 0.00 0.00 0.00 41 1006.6
20260503182622 55 151 9.6 14.8 0.00 0.00 0.00 39 1006.6
20260503182121 55 259 1.7 2.6 0.00 0.00 0.00 41 1006.5
20260503181617 55 184 1.7 7.8 0.00 0.00 0.00 38 1006.7
20260503181114 54 318 7.0 12.2 0.00 0.00 0.00 35 1006.7
20260503180611 53 224 1.7 7.8 0.00 0.00 0.00 38 1006.8
20260503180109 53 296 3.5 8.7 0.00 0.00 0.00 38 1006.7
20260503175605 53 276 1.7 3.5 0.00 0.00 0.00 39 1006.7
20260503175103 54 86 6.1 8.7 0.00 0.00 0.00 40 1006.8
20260503174559 53 237 3.5 6.1 0.00 0.00 0.00 38 1006.9
20260503174056 52 160 1.7 3.5 0.00 0.00 0.00 41 1006.9
20260503173551 53 237 3.5 6.1 0.00 0.00 0.00 36 1006.7
20260503173047 53 122 1.7 6.1 0.00 0.00 0.00 39 1006.9
20260503172545 52 147 5.2 7.0 0.00 0.00 0.00 39 1007.1
20260503172042 51 346 0.9 3.5 0.00 0.00 0.00 36 1007.3
20260503171538 52 134 9.6 11.3 0.00 0.00 0.00 37 1007.2
20260503171036 53 237 1.7 5.2 0.00 0.00 0.00 38 1007.3
20260503170532 50 89 2.6 5.2 0.00 0.00 0.00 43 1007.3
20260503150913 48 163 4.3 13.0 0.00 0.00 0.00 46 1008.1
20260503150409 47 222 2.6 7.0 0.00 0.00 0.00 50 1008.1
20260503131302 40 140 0.0 6.1 0.00 0.00 0.00 65 1008.0
20260503130800 41 128 1.7 5.2 0.00 0.00 0.00 64 1008.0
20260503130257 40 173 7.8 8.7 0.00 0.00 0.00 65 1007.8
20260503110651 30 150 0.0 0.0 0.00 0.00 0.00 93 1006.7
20260503110148 30 173 0.0 0.0 0.00 0.00 0.00 93 1006.6
20260503100115 29 109 0.0 0.0 0.00 0.00 0.00 94 1006.0
20260503081458 32 217 0.0 0.9 0.00 0.00 0.00 87 1004.7
20260503080955 33 154 0.0 0.0 0.00 0.00 0.00 86 1004.8
20260503080451 33 128 0.0 0.0 0.00 0.00 0.00 86 1004.6
20260503072927 37 276 0.9 1.7 0.00 0.00 0.00 77 1004.6
20260503072425 36 170 1.7 1.7 0.00 0.00 0.00 78 1004.4
20260503071922 35 198 0.0 0.9 0.00 0.00 0.00 80 1004.3
20260503071419 35 189 0.0 0.0 0.00 0.00 0.00 85 1004.4
20260503070915 35 131 0.9 0.9 0.00 0.00 0.00 88 1004.4
20260503070412 35 150 0.0 0.0 0.00 0.00 0.00 89 1004.4
20260503060338 32 256 0.0 0.0 0.00 0.00 0.00 90 1004.3
20260503054826 33 210 0.0 0.0 0.00 0.00 0.00 90 1004.4
20260503054322 33 217 0.9 0.9 0.00 0.00 0.00 90 1004.4
20260503053820 33 243 1.7 1.7 0.00 0.00 0.00 90 1004.4
20260503053318 33 301 1.7 1.7 0.00 0.00 0.00 90 1004.4
20260503052814 33 159 0.0 0.9 0.00 0.00 0.00 90 1004.6
20260503052311 33 262 0.9 0.9 0.00 0.00 0.00 89 1004.4
20260503051807 34 185 0.0 0.9 0.00 0.00 0.00 90 1004.2
20260503051304 34 85 0.0 0.9 0.00 0.00 0.00 89 1004.3
20260503050800 34 161 0.9 1.7 0.00 0.00 0.00 89 1004.2
20260503050257 34 185 0.0 0.9 0.00 0.00 0.00 89 1004.2
20260503045754 34 159 0.0 0.0 0.00 0.00 0.00 90 1004.1
20260503045252 34 6 0.0 0.0 0.00 0.00 0.00 90 1004.0
20260503044748 34 148 0.0 0.0 0.00 0.00 0.00 90 1004.0
20260503044245 34 214 0.0 0.0 0.00 0.00 0.00 89 1004.0
20260503043742 34 257 0.9 0.9 0.00 0.00 0.00 89 1004.1
20260503043239 34 255 0.0 0.0 0.00 0.00 0.00 90 1004.1
20260503042735 33 168 0.9 0.9 0.00 0.00 0.00 89 1003.9
20260503042232 33 171 0.0 0.0 0.00 0.00 0.00 90 1003.9
20260503041728 33 188 0.0 1.7 0.00 0.00 0.00 90 1004.1
20260503041226 33 270 0.0 0.9 0.00 0.00 0.00 89 1003.9
20260503040723 33 165 0.9 0.9 0.00 0.00 0.00 89 1003.9
20260503040221 33 246 0.0 0.9 0.00 0.00 0.00 89 1003.9
20260503035718 33 260 0.0 0.9 0.00 0.00 0.00 88 1003.7
20260503035215 33 223 0.0 0.0 0.00 0.00 0.00 88 1003.8
20260503034712 33 195 0.0 0.0 0.00 0.00 0.00 88 1003.8
20260503034209 34 198 0.0 0.0 0.00 0.00 0.00 87 1004.0
20260503033706 33 217 0.0 0.0 0.00 0.00 0.00 88 1003.8